Content
SEND FEEDBACK

Daily
Averages
Monthly
Summary
United States of America

UNION SPRINGS, ALABAMA


Home > North America > United States > Alabama
Elevation: 440 feet     Latitude: 32 01N     Longitude: 085 45W

WEATHER
 
SELECT A DAY
Number of Records: 181,926;   Date Range: 1/3/95 - 10/24/14
 
SHARE

PRINT THIS DATA

[ ← Previous Day ]
WEATHER ALMANAC - APRIL 25, 2014
[ Next Day → ]
[ °C ]   °F
Weather ElementAverageHighLow
Temperature70.9 °F82.9 °F (2:53 pm)59 °F (11:53 pm)
Dewpoint59.7 °F64.9 °F (7:45 am)51.1 °F (5:53 pm)
Humidity71.3 %90 % (1:53 am)34 % (4:53 pm)
Barometer29.93 in29.97 in (10:53 pm)29.90 in (3:53 am)
Wind Speed6.2 mph13.8 mph (1:53 pm)
Wind Gust25.3 mph (2:53 pm)
Weather ElementAverage
Visibility8.9 mi
Wind DirectionSSW (188.2 °)

Weather ElementTotal
Precipitation---
Cooling Degree Days6 (Base 65)
Growing Degree Days21 (Base 50)
Averaged from 34 records on April 25, 2014
WEATHER CONDITIONS BREAKOUT
WIND DIRECTION BREAKOUT
WEATHER BY HOUR - APRIL 25, 2014
[ °C ]   °F
Local TimeTemperatureDewpointHumidityBarometerVisibilityWind DirectionWind SpeedGust SpeedPrecipitationEventsConditions
1:53 AM64.0 °F61.0 °F90 %29.92 in7.0 miCalmMostly Cloudy
2:53 AM64.9 °F61.0 °F87 %29.92 in7.0 miSSW (210°)4.6 mphOvercast
3:03 AM64.9 °F61.0 °F87 %29.93 in8.0 miSW (230°)4.6 mphOvercast
3:14 AM64.9 °F61.0 °F87 %29.93 in9.0 miCalmOvercast
3:33 AM64.0 °F61.0 °F90 %29.92 in7.0 miESE (120°)4.6 mphOvercast
3:53 AM64.0 °F61.0 °F90 %29.90 in7.0 miSSE (150°)3.5 mphOvercast
4:21 AM64.9 °F62.1 °F90 %29.91 in8.0 miSSE (160°)4.6 mphOvercast
4:40 AM64.9 °F62.1 °F90 %29.91 in8.0 miSouth (190°)3.5 mphOvercast
4:53 AM66.0 °F62.1 °F87 %29.90 in9.0 miSSW (210°)5.8 mphOvercast
5:53 AM66.9 °F63.0 °F87 %29.91 in8.0 miSSW (210°)6.9 mphOvercast
6:06 AM66.9 °F63.0 °F87 %29.93 in8.0 miSSW (210°)6.9 mphOvercast
6:53 AM66.9 °F64.0 °F90 %29.93 in6.0 miSSW (210°)6.9 mphOvercast
7:45 AM69.1 °F64.9 °F87 %29.95 in7.0 miSW (220°)6.9 mphOvercast
7:53 AM69.1 °F64.9 °F87 %29.95 in7.0 miSW (230°)6.9 mphOvercast
8:24 AM71.1 °F64.9 °F81 %29.96 in8.0 miWSW (240°)9.2 mphOvercast
8:31 AM71.1 °F64.9 °F81 %29.96 in9.0 miWSW (240°)9.2 mphOvercast
8:45 AM72.0 °F64.9 °F78 %29.96 in10.0 miWSW (240°)6.9 mphOvercast
8:53 AM73.0 °F64.9 °F76 %29.95 in10.0 miWSW (240°)10.4 mph19.6 mphOvercast
9:22 AM75.0 °F64.0 °F69 %29.96 in10.0 miWest (270°)10.4 mphPartly Cloudy
9:53 AM77.0 °F59.0 °F54 %29.95 in10.0 miWSW (250°)12.7 mph20.7 mphScattered Clouds
10:53 AM78.1 °F57.9 °F50 %29.96 in10.0 miWest (280°)10.4 mph21.9 mphPartly Cloudy
11:53 AM80.1 °F57.9 °F47 %29.95 in10.0 miWNW (290°)11.5 mph21.9 mphClear
12:53 PM82.0 °F59.0 °F45 %29.94 in10.0 miWest (260°)9.2 mph17.3 mphScattered Clouds
1:53 PM82.0 °F55.9 °F41 %29.94 in10.0 miWest (280°)13.8 mph23.0 mphScattered Clouds
2:53 PM82.9 °F55.9 °F39 %29.92 in10.0 miWNW (300°)12.7 mph25.3 mphPartly Cloudy
3:53 PM82.9 °F53.1 °F36 %29.91 in10.0 miWest (270°)10.4 mphClear
4:53 PM82.9 °F52.0 °F34 %29.91 in10.0 miWNW (300°)8.1 mphClear
5:53 PM82.0 °F51.1 °F34 %29.91 in10.0 miWest (280°)6.9 mphClear
6:53 PM78.1 °F52.0 °F40 %29.90 in10.0 miNW (310°)4.6 mphClear
7:53 PM70.0 °F55.0 °F59 %29.92 in10.0 miCalmClear
8:53 PM64.9 °F55.9 °F73 %29.94 in10.0 miCalmClear
9:53 PM62.1 °F57.0 °F84 %29.96 in10.0 miCalmClear
10:53 PM62.1 °F55.9 °F80 %29.97 in10.0 miCalmClear
11:53 PM59.0 °F55.0 °F87 %29.96 in10.0 miCalmClear
Hourly data recorded from KTOI, located miles away from Union Springs, Alabama







STORIES FROM OUR PARTNERS